sat.trackr.live / text

‹ back to catalog

STARLINK-34752

NORAD 66153 · 2025-240H

PAYLOAD ACTIVE UNKNOWN

§ Identity

Operator
Country
US
Launch date
2025-10-25
Launch site
AFWTR
Launch vehicle
Mass (kg)
RCS (m²)

Purposes: comms

External: N2YO · Heavens-Above · Gunter

§ Orbital elements

Epoch: 2026-09-20T04:33:42.331392Z

Period
93.85 min
Inclination
53.1588°
Eccentricity
0.0001856
Mean motion
15.34402330 rev/d
Perigee alt
461.4 km
Apogee alt
464.0 km
Semi-major
6,840.8 km
B*
4.4499e-4
RAAN
235.3886°
Arg perigee
79.5425°
Mean anomaly
280.5786°
Rev number
5,182

§ Raw data

STARLINK-347521 66153U 25240H   26263.19007328  .00014689  00000+0  44499-3 0  99932 66153  53.1588 235.3886 0001856  79.5425 280.5786 15.34402330 51827

JSON: /api/v1/satellites/66153 · /tle

For live sub-satellite position, see the globe view (requires WebGL).

§ Visibility from observer

Set your observer location to see the next 7 days of passes ≥ 10°. The values pass through the URL so the page stays shareable.

No JS? Fill the form by hand. The geolocation button needs JavaScript.